Regional Weather Roundup
Issued by NWS

Home | Current Version | Previous Version | Text Only | Print | Product List | Glossary On
Versions: 1 2 3 4 5 6 7 8 9 10 11 12 13 14 15 16 17 18 19 20 21 22 23 24 25 26 27 28 29 30 31 32 33 34 35 36 37 38 39 40 41 42 43 44 45 46 47 48 49 50
000
ASUS43 KDTX 062310
RWRMI
MICHIGAN HOURLY REGIONAL WEATHER ROUNDUP
NATIONAL WEATHER SERVICE DETROIT/PONTIAC MI
ISSUED BY NATIONAL WEATHER SERVICE GRAND RAPIDS MI
700 PM EDT WED MAY 06 2015

NOTE: "FAIR" INDICATES FEW OR NO CLOUDS BELOW 12,000 FEET WITH NO
SIGNIFICANT WEATHER AND/OR OBSTRUCTION TO VISIBILITY.

MIZ047>049-052>055-059>063-066>070-074>076-081>083-070000-
SOUTHEAST LOWER MICHIGAN

CITY           SKY/WX    TMP DP  RH WIND       PRES   REMARKS
ADRIAN         SUNNY     68  60  75 SE7       30.17F
ALMA           SUNNY     73  59  61 SE5       30.15S
ANN ARBOR      MOSUNNY   70  60  70 S7        30.17S
BAD AXE        SUNNY     69  53  58 SE7       30.17F
DETROIT CITY   SUNNY     69  57  65 E5        30.17F
DETROIT        MOSUNNY   70  59  68 E7        30.17F
FLINT          SUNNY     75  58  55 SE5       30.15F
GROSSE ILE     SUNNY     57  52  82 S6        30.17F HAZE
HILLSDALE      SUNNY     70  62  75 SE6       30.16F
HOWELL         SUNNY     73  59  61 SE5       30.15F

CITY           SKY/WX    TMP DP  RH WIND       PRES   REMARKS
JACKSON        SUNNY     71  60  68 SE6       30.15F
LANSING        MOSUNNY   73  61  65 S6        30.15F
MASON          SUNNY     71  61  69 SE3       30.15F
MONROE         SUNNY     63  55  77 SE6       30.16F
MT. CLEMENS    MOSUNNY   68  59  72 SE5       30.15F
PONTIAC        MOSUNNY   71  57  61 SE6       30.16F
PORT HOPE        N/A     49  42  77 SE9       30.18F
PORT HURON     SUNNY     64  54  68 NE6       30.18F
TRI CITIES     SUNNY     69  52  54 NE9       30.17F
YPSILANTI      SUNNY     74  59  59 SE6       30.17F
$$
MIZ043>046-050>051-056>058-064>065-071>073-077>080-070000-
SOUTHWEST LOWER MICHIGAN

CITY           SKY/WX    TMP DP  RH WIND       PRES   REMARKS
BATTLE CREEK   SUNNY     77  61  57 VRB3      30.13F
BENTON HARBOR  SUNNY     75  59  57 NW3       30.09F
BIG RAPIDS     PTSUNNY   75  56  52 S7        30.12F
COLDWATER      SUNNY     72  62  68 E7        30.13F
HOLLAND        SUNNY     76  62  62 E3        30.12S
GRAND RAPIDS   MOSUNNY   75  61  61 E9        30.13F
KALAMAZOO      SUNNY     78  61  55 VRB5      30.12F
MARSHALL       SUNNY     74  62  66 SE6       30.13F
MOUNT PLEASANT SUNNY     74  56  52 S5        30.14F
MUSKEGON       MOSUNNY   77  59  53 NW3       30.11F
STURGIS        SUNNY     77  61  57 CALM      30.11F
$$
MIZ016>042-070000-
NORTHERN LOWER MICHIGAN

CITY           SKY/WX    TMP DP  RH WIND       PRES   REMARKS
ALPENA         SUNNY     60  43  53 E9        30.19F
BEAVER ISLAND  MOSUNNY   62  39  42 E8        30.15F
BELLAIRE       CLOUDY    73  48  41 CALM      30.13F
CADILLAC       MOSUNNY   73  56  54 E7        30.13F
CHARLEVOIX     MOSUNNY   64  40  42 N3        30.17F
GAYLORD        CLOUDY    72  48  42 S8        30.15F
HOUGHTON LAKE  PTSUNNY   71  51  49 SW3       30.16F
MANISTEE       SUNNY     66  48  52 W7        30.13F
OSCODA         SUNNY     55  44  68 E3        30.19F
PELLSTON       SUNNY     71  43  36 NE9       30.15F
TRAVERSE CITY  PTSUNNY   61  40  45 NE6       30.12F
LUDINGTON      SUNNY     71  58  63 W3        30.12F
$$
MIZ007>008-015-070000-
EASTERN UPPER MICHIGAN

CITY           SKY/WX    TMP DP  RH WIND       PRES   REMARKS
KINROSS        SUNNY     68  36  30 S12       30.15F
MACKINAC ISLAN MOSUNNY   50  39  67 E12       30.16F
NEWBERRY       SUNNY     69  29  22 S9G18     30.14S HAZE
S. S. MARIE    MOSUNNY   68  21  16 SE9       30.15F
$$
MIZ004>006-011>014-085-070000-
CENTRAL UPPER MICHIGAN

CITY           SKY/WX    TMP DP  RH WIND       PRES   REMARKS
MANISTIQUE     SUNNY     59  38  45 SE10      30.14F
ESCANABA       PTSUNNY   57  37  47 SE3       30.12F
MENOMINEE      MOSUNNY   59  46  63 E7        30.12S
$$
MIZ001>003-009>011-084-070000-
WESTERN UPPER MICHIGAN

CITY           SKY/WX    TMP DP  RH WIND       PRES   REMARKS
IRON MOUNTAIN  MOSUNNY   68  49  50 E13       30.07F
HOUGHTON       PTSUNNY   63  34  33 E12       30.06F
COPPER HARBOR    N/A     64  30  27 S9G17     30.06F
IRONWOOD       CLOUDY    72  57  60 S12       29.97F
$$

ABBREVIATIONS USED IN REMARKS
   TC - TEMPERATURE IN CELSIUS
  WCI - WIND CHILL INDEX
   HX - HEAT INDEX
  VSB - VISIBILITY




USA.gov is the U.S. government's official web portal to all federal, state and local government web resources and services.